Hollywood, FL

10:42 AM EDT on April 23, 2017 (GMT -0400)
North Perry

Weather History for KHWO - January, 2013

Change the Weather History Date:

Sunday, January 13, 2013

  Actual Average (KFLL) Record (KFLL)
Temperature  
Mean Temperature 76 °F -  
Max Temperature 80 °F 76 °F 86 °F (1933)
Min Temperature 71 °F 56 °F 32 °F (1981)
Cooling Degree Days 10    
Growing Degree Days 26 (Base 50)    
Moisture  
Dew Point 63 °F    
Average Humidity 68    
Maximum Humidity 81    
Minimum Humidity 54    
Precipitation  
Precipitation 0.00 in - - ()
Sea Level Pressure  
Sea Level Pressure 30.12 in    
Wind  
Wind Speed 9 mph (ESE)    
Max Wind Speed 17 mph    
Max Gust Speed 24 mph    
Visibility 10 miles    
Events Rain    
Averages and records for this station are not official NWS values.
T = Trace of Precipitation, MM = Missing Value Source: NWS Daily Summary

Daily Weather History Graph

Daily Weather History Graph

Search for Another Location

Airport or City:

Trip Planner

Search our weather history database for the weather conditions in past years. The results will help you decide how hot, cold, wet, or windy it might be!

Date:

Astronomy

Jan. 13, 2013 Rise Set
Actual Time 7:09 AM EST 5:50 PM EST
Civil Twilight 6:44 AM EST 6:14 PM EST
Nautical Twilight 6:16 AM EST 6:43 PM EST
Astronomical Twilight 5:48 AM EST 7:11 PM EST
Moon 8:23 AM EST (1/13) 8:07 PM EST (1/13)
Length of Visible Light 11h 29m
Length of Day
10h 40m
Waxing Crescent, 5% of the Moon is Illuminated
Jan 13
Waxing Crescent
Jan 18
First Quarter
Jan 26
Full
Feb 3
Last Quarter
Feb 10
New

Hourly Weather History & Observations

Time (EST) Temp. Heat Index Dew Point Humidity Pressure Visibility Wind Dir Wind Speed Gust Speed Precip Events Conditions
12:53 AM 72.0 °F - 66.0 °F 81% 30.12 in 10.0 mi ESE 4.6 mph - N/A   Scattered Clouds
1:53 AM 72.0 °F - 64.9 °F 78% 30.11 in 10.0 mi ESE 6.9 mph - N/A   Partly Cloudy
2:53 AM 72.0 °F - 64.9 °F 78% 30.11 in 10.0 mi ESE 8.1 mph - N/A   Clear
3:53 AM 72.0 °F - 64.0 °F 76% 30.10 in 10.0 mi ESE 9.2 mph - N/A   Partly Cloudy
4:53 AM 71.1 °F - 63.0 °F 75% 30.10 in 10.0 mi East 6.9 mph - N/A   Clear
5:53 AM 71.1 °F - 64.0 °F 78% 30.11 in 10.0 mi East 6.9 mph - N/A   Clear
6:53 AM 71.1 °F - 64.0 °F 78% 30.11 in 10.0 mi ESE 8.1 mph - N/A   Clear
7:53 AM 73.0 °F - 66.0 °F 79% 30.11 in 10.0 mi East 10.4 mph - N/A   Scattered Clouds
8:38 AM 73.4 °F - 66.2 °F 78% 30.11 in 10.0 mi ESE 10.4 mph - 0.00 in Rain Light Rain
8:53 AM 75.0 °F - 66.0 °F 73% 30.12 in 10.0 mi ESE 12.7 mph 21.9 mph 0.00 in   Overcast
9:09 AM 77.0 °F - 66.2 °F 69% 30.12 in 10.0 mi SE 16.1 mph 21.9 mph N/A   Mostly Cloudy
9:53 AM 77.0 °F - 64.9 °F 66% 30.13 in 10.0 mi ESE 17.3 mph 23.0 mph N/A   Partly Cloudy
10:53 AM 79.0 °F - 64.0 °F 60% 30.12 in 10.0 mi ESE 17.3 mph 24.2 mph N/A   Mostly Cloudy
11:53 AM 80.1 °F 81.5 °F 63.0 °F 56% 30.14 in 10.0 mi SE 11.5 mph - N/A   Partly Cloudy
12:53 PM 78.1 °F - 64.0 °F 62% 30.13 in 10.0 mi SE 11.5 mph - N/A   Partly Cloudy
1:53 PM 78.1 °F - 61.0 °F 56% 30.12 in 10.0 mi SE 10.4 mph - N/A   Partly Cloudy
2:53 PM 79.0 °F - 61.0 °F 54% 30.11 in 10.0 mi SE 10.4 mph - N/A   Clear
3:53 PM 78.1 °F - 62.1 °F 58% 30.13 in 10.0 mi SE 11.5 mph - N/A   Mostly Cloudy
4:53 PM 77.0 °F - 61.0 °F 58% 30.14 in 10.0 mi ESE 10.4 mph - N/A   Partly Cloudy
5:53 PM 75.0 °F - 62.1 °F 64% 30.15 in 10.0 mi ESE 8.1 mph - N/A   Clear
6:53 PM 73.9 °F - 63.0 °F 68% 30.15 in 10.0 mi ESE 10.4 mph - N/A   Mostly Cloudy
7:53 PM 73.0 °F - 62.1 °F 68% 30.15 in 10.0 mi East 5.8 mph - N/A   Clear
8:53 PM 73.0 °F - 62.1 °F 68% 30.14 in 10.0 mi ESE 9.2 mph - N/A   Clear
9:53 PM 73.0 °F - 60.1 °F 64% 30.12 in 10.0 mi ESE 10.4 mph - N/A   Partly Cloudy
10:53 PM 73.0 °F - 60.1 °F 64% 30.14 in 10.0 mi East 10.4 mph - N/A   Mostly Cloudy
11:53 PM 73.0 °F - 59.0 °F 61% 30.14 in 10.0 mi ESE 6.9 mph - N/A   Partly Cloudy